GW5682 Weather Reports


Display with metric or nautical units.
time (UTC)temp
F
wind
direction
speed
MPH
gust
MPH
rain 1hr
in
rain 24hr
in
rain mn
in
humidity
%
barometer
mb
20260906034103 82 0.0 0.0 0.00 0.00 0.00 67 1015.2
20260906033123 82 0.0 0.0 0.00 0.00 0.00 65 1015.2
20260906032103 83 90 1.0 1.0 0.00 0.00 0.00 64 1015.2
20260906031103 83 0.0 0.0 0.00 0.00 0.00 64 1015.2
20260906025103 84 90 1.0 1.0 0.00 0.00 0.00 62 1015.2
20260906024144 84 135 1.0 2.0 0.00 0.00 0.00 62 1015.0
20260906023103 84 180 1.0 2.0 0.00 0.00 0.00 61 1014.7
20260906022103 85 0.0 1.0 0.00 0.00 0.00 60 1014.8
20260906021103 85 90 1.0 2.0 0.00 0.00 0.00 60 1014.6
20260906015103 86 0.0 0.0 0.00 0.00 0.00 58 1014.3
20260906014103 86 90 1.0 1.0 0.00 0.00 0.00 57 1014.3
20260906013103 87 225 1.0 3.0 0.00 0.00 0.00 57 1014.3
20260906012103 88 45 1.0 2.0 0.00 0.00 0.00 55 1014.2
20260906011103 89 45 2.0 4.0 0.00 0.00 0.00 54 1013.9
20260906010103 90 135 2.0 3.0 0.00 0.00 0.00 52 1013.7
20260906005103 91 90 3.0 4.0 0.00 0.00 0.00 47 1013.6
20260906004103 92 135 4.0 7.0 0.00 0.00 0.00 45 1013.4
20260906003103 93 0.0 1.0 0.00 0.00 0.00 41 1013.4
20260906002103 94 0.0 1.0 0.00 0.00 0.00 40 1013.5
20260906001103 95 90 1.0 1.0 0.00 0.00 0.00 40 1013.5
20260905235103 97 0.0 0.0 0.00 0.00 0.00 37 1013.4
20260905234103 98 90 1.0 1.0 0.00 0.00 0.00 36 1013.1
20260905233103 98 315 1.0 1.0 0.00 0.00 0.00 36 1013.1
20260905232103 98 45 2.0 3.0 0.00 0.00 0.00 36 1013.1
20260905231103 99 90 2.0 3.0 0.00 0.00 0.00 34 1013.2
20260905225103 99 315 3.0 4.0 0.00 0.00 0.00 34 1013.2
20260905224103 99 90 2.0 3.0 0.00 0.00 0.00 34 1013.2
20260905223103 100 45 4.0 5.0 0.00 0.00 0.00 31 1013.2
20260905222103 100 45 2.0 4.0 0.00 0.00 0.00 31 1013.2
20260905221103 99 0 4.0 5.0 0.00 0.00 0.00 33 1013.3
20260905220103 101 45 3.0 3.0 0.00 0.00 0.00 30 1013.3
20260905215103 100 90 1.0 2.0 0.00 0.00 0.00 31 1013.4
20260905214103 100 158 3.0 5.0 0.00 0.00 0.00 30 1013.6
20260905213143 99 90 2.0 3.0 0.00 0.00 0.00 33 1013.5
20260905212103 100 45 5.0 6.0 0.00 0.00 0.00 30 1013.7
20260905211103 100 45 3.0 5.0 0.00 0.00 0.00 28 1013.8
20260905210123 100 45 4.0 5.0 0.00 0.00 0.00 30 1013.9
20260905205143 99 90 3.0 4.0 0.00 0.00 0.00 32 1014.1
20260905204103 101 90 2.0 3.0 0.00 0.00 0.00 30 1014.1
20260905203124 101 135 3.0 3.0 0.00 0.00 0.00 31 1014.2
20260905202103 101 225 1.0 2.0 0.00 0.00 0.00 31 1014.2
20260905201103 100 0 2.0 3.0 0.00 0.00 0.00 31 1014.6
20260905200103 99 90 1.0 2.0 0.00 0.00 0.00 35 1014.6
20260905195103 100 315 2.0 3.0 0.00 0.00 0.00 31 1014.7
20260905194103 99 90 1.0 2.0 0.00 0.00 0.00 35 1015.0
20260905193103 99 90 5.0 7.0 0.00 0.00 0.00 33 1015.1
20260905192103 99 180 3.0 5.0 0.00 0.00 0.00 37 1015.3
20260905191103 99 45 3.0 3.0 0.00 0.00 0.00 35 1015.5
20260905185103 96 90 2.0 3.0 0.00 0.00 0.00 39 1015.8
20260905184103 98 0 1.0 3.0 0.00 0.00 0.00 36 1015.9
20260905183103 97 90 3.0 7.0 0.00 0.00 0.00 38 1015.9
20260905182123 97 45 3.0 5.0 0.00 0.00 0.00 37 1016.2
20260905181100 97 90 4.0 5.0 0.00 0.00 0.00 39 1016.3
20260905175652 96 68 3.0 4.0 0.00 0.00 0.00 42 1016.6
20260905174628 96 90 2.0 3.0 0.00 0.00 0.00 42 1016.6
20260905173652 96 0 3.0 3.0 0.00 0.00 0.00 42 1016.8
20260905172628 95 45 2.0 3.0 0.00 0.00 0.00 42 1016.8
20260905171652 96 90 4.0 6.0 0.00 0.00 0.00 42 1017.0
20260905170648 95 90 3.0 3.0 0.00 0.00 0.00 45 1017.2
20260905165712 94 45 2.0 3.0 0.00 0.00 0.00 45 1017.3
20260905164628 94 225 2.0 3.0 0.00 0.00 0.00 45 1017.0
20260905163652 93 0 2.0 3.0 0.00 0.00 0.00 44 1017.2
20260905162628 94 270 3.0 4.0 0.00 0.00 0.00 44 1017.2
20260905161652 93 135 1.0 3.0 0.00 0.00 0.00 46 1017.0
20260905160228 92 90 1.0 3.0 0.00 0.00 0.00 48 1017.3
20260905155116 91 0 3.0 4.0 0.00 0.00 0.00 50 1017.4
20260905154141 91 180 1.0 2.0 0.00 0.00 0.00 51 1017.2
20260905153137 91 0 1.0 3.0 0.00 0.00 0.00 50 1017.1
20260905152140 90 225 2.0 3.0 0.00 0.00 0.00 55 1017.1
20260905151117 90 315 3.0 4.0 0.00 0.00 0.00 57 1017.1
20260905150200 89 225 3.0 3.0 0.00 0.00 0.00 60 1017.0
20260905145116 88 0.0 1.0 0.00 0.00 0.00 60 1017.2
20260905144140 87 180 3.0 3.0 0.00 0.00 0.00 61 1017.1
20260905143137 87 270 3.0 5.0 0.00 0.00 0.00 61 1016.9
20260905142140 86 315 3.0 4.0 0.00 0.00 0.00 62 1017.0
20260905141116 85 225 1.0 3.0 0.00 0.00 0.00 65 1017.0
20260905140140 84 270 1.0 2.0 0.00 0.00 0.00 68 1017.0
20260905135116 83 0 1.0 1.0 0.00 0.00 0.00 69 1017.1
20260905134141 82 23 1.0 1.0 0.00 0.00 0.00 71 1017.1
20260905133116 80 135 1.0 1.0 0.00 0.00 0.00 77 1016.9
20260905132201 79 0.0 1.0 0.00 0.00 0.00 81 1016.9
20260905131116 77 0.0 1.0 0.00 0.00 0.00 85 1016.8
20260905130201 75 0.0 0.0 0.00 0.00 0.00 86 1016.6
20260905125116 75 0.0 0.0 0.00 0.00 0.00 86 1016.5
20260905124140 74 0.0 0.0 0.00 0.00 0.00 86 1016.4
20260905123117 74 0.0 0.0 0.00 0.00 0.00 85 1016.1
20260905122140 74 0.0 0.0 0.00 0.00 0.00 85 1015.8
20260905121116 74 0.0 0.0 0.00 0.00 0.00 84 1016.0
20260905120200 74 0.0 0.0 0.00 0.00 0.00 84 1016.1
20260905115137 75 0.0 0.0 0.00 0.00 0.00 84 1015.9
20260905114140 74 0.0 0.0 0.00 0.00 0.00 84 1016.2
20260905113116 74 0.0 0.0 0.00 0.00 0.00 84 1016.0
20260905112140 74 0.0 0.0 0.00 0.00 0.00 84 1015.9
20260905111116 74 0.0 0.0 0.00 0.00 0.00 84 1016.2
20260905110140 74 0.0 0.0 0.00 0.00 0.00 84 1016.2
20260905105116 74 0.0 0.0 0.00 0.00 0.00 84 1016.2
20260905104140 74 0.0 0.0 0.00 0.00 0.00 85 1016.1
20260905103116 74 0.0 0.0 0.00 0.00 0.00 84 1016.3
20260905102140 74 0.0 0.0 0.00 0.00 0.00 84 1016.2
20260905101116 75 0.0 0.0 0.00 0.00 0.00 83 1016.0
20260905100140 75 0.0 0.0 0.00 0.00 0.00 83 1016.1
20260905095116 75 0.0 0.0 0.00 0.00 0.00 82 1016.0
20260905094140 75 0.0 0.0 0.00 0.00 0.00 81 1016.0
20260905093116 76 0.0 0.0 0.00 0.00 0.00 80 1015.8
20260905092140 76 0.0 0.0 0.00 0.00 0.00 79 1015.5
20260905091117 76 0.0 0.0 0.00 0.00 0.00 78 1015.7
20260905090140 76 0.0 0.0 0.00 0.00 0.00 78 1015.4
20260905085116 77 0.0 0.0 0.00 0.00 0.00 79 1015.6
20260905084200 77 0.0 0.0 0.00 0.00 0.00 78 1015.6
20260905083116 77 0.0 0.0 0.00 0.00 0.00 77 1015.7
20260905082140 77 0.0 0.0 0.00 0.00 0.00 77 1015.5
20260905081116 77 0.0 0.0 0.00 0.00 0.00 77 1015.5
20260905080140 77 0.0 0.0 0.00 0.00 0.00 77 1015.4
20260905075136 77 0.0 0.0 0.00 0.00 0.00 76 1015.6
20260905074140 77 0.0 0.0 0.00 0.00 0.00 76 1015.5
20260905073116 78 0.0 1.0 0.00 0.00 0.00 76 1015.5
20260905072201 78 0.0 0.0 0.00 0.00 0.00 75 1015.7
20260905071116 78 0.0 0.0 0.00 0.00 0.00 75 1015.6
20260905070140 78 0.0 0.0 0.00 0.00 0.00 75 1015.8
20260905065116 78 0.0 0.0 0.00 0.00 0.00 74 1015.8
20260905064140 78 0.0 0.0 0.00 0.00 0.00 74 1015.9
20260905063116 79 0.0 0.0 0.00 0.00 0.00 73 1015.8
20260905062201 79 0.0 0.0 0.00 0.00 0.00 72 1015.8
20260905061117 79 0.0 1.0 0.00 0.00 0.00 72 1015.9
20260905060140 80 0.0 0.0 0.00 0.00 0.00 71 1015.8
20260905055237 80 0.0 0.0 0.00 0.00 0.00 71 1015.7
20260905054140 80 0.0 0.0 0.00 0.00 0.00 70 1015.7
20260905053116 80 0.0 0.0 0.00 0.00 0.00 71 1015.8
20260905052201 80 0.0 0.0 0.00 0.00 0.00 71 1015.6
20260905051116 80 0.0 0.0 0.00 0.00 0.00 71 1015.6
20260905050140 80 0.0 0.0 0.00 0.00 0.00 70 1015.5
20260905045116 80 0.0 0.0 0.00 0.00 0.00 70 1015.7
20260905044241 80 0.0 0.0 0.00 0.00 0.00 70 1015.8
20260905043156 81 0.0 0.0 0.00 0.00 0.00 70 1015.7
20260905042140 81 0.0 0.0 0.00 0.00 0.00 69 1015.5
20260905041116 81 0.0 0.0 0.00 0.00 0.00 69 1015.6
20260905040140 81 0.0 0.0 0.00 0.00 0.00 69 1015.6
20260905035136 81 0.0 0.0 0.00 0.00 0.00 70 1015.6